EA5EN Weather Reports


time (UTC)temp
C
wind
direction
speed
KPH
gust
KPH
rain 1hr
cm
rain 24hr
cm
rain mn
cm
humidity
%
barometer
mb
20260503013032 17 0.0 3.2 0.00 0.00 0.00 90 1015.4
20260503012027 17 68 1.6 3.2 0.00 0.00 0.00 90 1015.5
20260503011017 17 68 0.0 3.2 0.00 0.00 0.00 90 1015.6
20260503010107 17 68 1.6 3.2 0.00 0.00 0.00 89 1015.8
20260503005056 17 68 0.0 3.2 0.00 0.00 0.00 89 1015.5
20260503004051 17 68 0.0 3.2 0.00 0.00 0.00 89 1015.8
20260503003041 17 68 0.0 3.2 0.00 0.00 0.00 88 1016.1
20260503002030 17 68 0.0 3.2 0.00 0.00 0.00 88 1016.3
20260503001020 17 68 0.0 3.2 0.00 0.00 0.00 87 1016.9
20260503000115 17 68 1.6 3.2 0.00 0.00 0.00 88 1017.1
20260502235104 17 68 1.6 3.2 0.00 0.00 0.00 88 1017.3
20260502234054 17 68 1.6 3.2 0.00 0.00 0.00 88 1017.1
20260502233044 17 45 1.6 3.2 0.00 0.00 0.00 88 1017.1
20260502232039 17 45 1.6 3.2 0.00 0.00 0.00 89 1017.2
20260502231028 17 23 1.6 3.2 0.00 0.00 0.00 89 1017.0
20260502230017 17 23 1.6 3.2 0.00 0.00 0.00 90 1016.9
20260502225107 17 23 1.6 3.2 0.00 0.00 0.00 89 1016.9
20260502224056 17 23 0.0 3.2 0.00 0.00 0.00 89 1016.8
20260502223051 17 23 1.6 3.2 0.00 0.00 0.00 89 1017.0
20260502222041 17 27 1.6 6.4 0.00 0.00 0.00 88 1017.1
20260502221032 17 41 3.2 6.4 0.00 0.00 0.00 88 1017.0
20260502220027 17 70 4.8 6.4 0.00 0.00 0.00 89 1017.1
20260502215037 17 64 3.2 9.7 0.00 0.00 0.00 89 1017.2
20260502214108 17 61 3.2 6.4 0.00 0.00 0.00 89 1017.4
20260502213056 17 68 4.8 9.7 0.00 0.00 0.00 89 1017.3
20260502212051 17 85 3.2 9.7 0.00 0.00 0.00 89 1017.3
20260502211042 17 81 4.8 11.3 0.00 0.00 0.00 89 1017.2
20260502210053 17 64 4.8 9.7 0.00 0.00 0.00 89 1017.4
20260502205047 17 90 4.8 9.7 0.00 0.00 0.00 89 1017.2
20260502204018 17 90 4.8 11.3 0.00 0.00 0.00 88 1017.1
20260502203107 17 75 4.8 9.7 0.00 0.00 0.00 87 1017.1
20260502202056 17 72 8.0 14.5 0.00 0.00 0.00 87 1017.0
20260502201051 17 83 6.4 12.9 0.00 0.00 0.00 87 1016.9
20260502200041 17 86 8.0 14.5 0.00 0.00 0.00 87 1016.9
20260502195032 18 87 9.7 14.5 0.00 0.00 0.00 86 1016.7
20260502194027 18 77 4.8 11.3 0.00 0.00 0.00 86 1016.6
20260502193017 18 84 8.0 14.5 0.00 0.00 0.00 85 1016.6
20260502192107 18 64 6.4 14.5 0.00 0.00 0.00 84 1016.5
20260502191056 18 70 6.4 12.9 0.00 0.00 0.00 84 1016.5
20260502190051 18 50 6.4 12.9 0.00 0.00 0.00 83 1016.5
20260502185041 18 70 6.4 14.5 0.00 0.00 0.00 82 1016.4
20260502184030 19 42 6.4 14.5 0.00 0.00 0.00 80 1016.3
20260502183040 19 69 9.7 20.9 0.00 0.00 0.00 80 1016.2
20260502182115 19 79 11.3 20.9 0.00 0.00 0.00 78 1016.1
20260502181104 20 81 8.0 17.7 0.00 0.00 0.00 76 1016.3
20260502170115 21 48 8.0 14.5 0.00 0.00 0.00 71 1016.8
20260502164045 21 69 9.7 22.5 0.00 0.00 0.00 71 1016.9
20260502163039 21 42 8.0 17.7 0.00 0.00 0.00 70 1017.1
20260502162033 21 54 8.0 17.7 0.00 0.00 0.00 69 1017.0
20260502161028 21 73 9.7 22.5 0.00 0.03 0.00 69 1017.0
20260502152102 21 68 8.0 17.7 0.00 0.15 0.00 70 1017.6
20260502151056 21 79 6.4 14.5 0.00 0.15 0.00 70 1017.9
20260502123032 21 83 6.4 14.5 0.00 0.15 0.00 70 1019.2
20260502122028 21 85 8.0 17.7 0.00 0.15 0.00 72 1019.3
20260502121023 21 81 9.7 20.9 0.00 0.15 0.00 72 1019.3
20260502115113 21 70 9.7 17.7 0.00 0.15 0.00 70 1019.4
20260502114107 21 74 4.8 11.3 0.00 0.15 0.00 71 1019.7
20260502113101 21 70 6.4 12.9 0.00 0.15 0.00 71 1019.7
20260502112056 21 47 8.0 12.9 0.00 0.15 0.00 70 1019.8
20260502111051 21 55 6.4 12.9 0.00 0.15 0.00 70 1019.9
20260502110045 21 78 9.7 17.7 0.00 0.15 0.00 71 1020.1
20260502105040 21 95 9.7 17.7 0.00 0.15 0.00 71 1020.0
20260502104055 21 89 11.3 22.5 0.00 0.15 0.00 71 1020.0
20260502103030 21 77 9.7 17.7 0.00 0.15 0.00 69 1020.2
20260502102025 21 76 12.9 24.1 0.00 0.15 0.00 71 1020.2
20260502101020 21 65 8.0 20.9 0.00 0.15 0.00 71 1020.2
20260502100135 21 83 6.4 12.9 0.00 0.15 0.00 74 1020.4
20260502091048 20 90 4.8 9.7 0.00 0.15 0.00 79 1020.7
20260502071044 18 0.0 3.2 0.00 0.15 0.00 83 1020.6
20260502070039 18 90 1.6 6.4 0.00 0.15 0.00 84 1020.7
20260502065034 18 0.0 3.2 0.00 0.15 0.00 84 1020.7
20260502064029 18 68 0.0 3.2 0.00 0.15 0.00 84 1020.7
20260502063024 18 45 1.6 3.2 0.00 0.15 0.00 84 1020.7
20260502062019 18 0.0 3.2 0.00 0.15 0.00 84 1020.7
20260502061114 18 68 0.0 3.2 0.00 0.15 0.00 85 1020.7
20260502060109 18 0.0 0.0 0.00 0.15 0.00 85 1020.6
20260502055104 17 68 0.0 3.2 0.00 0.15 0.00 85 1020.5
20260502054057 17 0.0 3.2 0.00 0.15 0.00 86 1020.4
20260502053052 17 0.0 3.2 0.00 0.15 0.00 86 1020.5
20260502052047 17 90 0.0 3.2 0.00 0.15 0.00 86 1020.5
20260502051041 17 0.0 0.0 0.00 0.15 0.00 86 1020.5
20260502050057 17 90 0.0 3.2 0.00 0.15 0.00 86 1020.4
20260502045032 17 0.0 0.0 0.00 0.15 0.00 86 1020.6
20260502044026 17 0.0 0.0 0.00 0.15 0.00 87 1020.4
20260502043021 17 0.0 3.2 0.00 0.15 0.00 87 1020.5
20260502042115 17 68 0.0 3.2 0.00 0.15 0.00 87 1020.4
20260502041130 17 0.0 3.2 0.00 0.15 0.00 87 1020.5
20260502040105 17 0.0 3.2 0.00 0.15 0.00 88 1020.5
20260502035058 17 0.0 0.0 0.00 0.15 0.00 88 1020.7
20260502034053 17 0.0 0.0 0.00 0.15 0.00 88 1020.8
20260502033049 17 0.0 3.2 0.00 0.15 0.00 88 1020.8
20260502032043 17 0.0 0.0 0.00 0.15 0.00 88 1020.8
20260502031038 17 68 0.0 3.2 0.00 0.15 0.00 88 1020.8
20260502030033 17 68 0.0 3.2 0.00 0.15 0.00 88 1020.8
20260502025048 17 0.0 3.2 0.00 0.15 0.00 88 1020.9
20260502024023 17 90 1.6 3.2 0.00 0.15 0.00 89 1020.9
20260502023018 17 90 3.2 6.4 0.00 0.15 0.00 89 1020.8
20260502022113 17 96 3.2 6.4 0.00 0.15 0.00 89 1020.7
20260502021108 17 86 3.2 6.4 0.00 0.15 0.00 89 1020.8
20260502020101 17 78 3.2 6.4 0.00 0.15 0.00 89 1020.7
20260502015115 17 68 1.6 3.2 0.00 0.15 0.00 89 1020.8
20260502014051 17 68 1.6 3.2 0.00 0.15 0.00 89 1021.2